星链-30757 (STARLINK-30757 )

导读

STARLINK-30757是美国SpaceX公司星链星座的卫星,于2023年10月22日发射升空,运行在近地轨道。它属于第二代星链组网卫星,承担全球宽带互联网接入服务,可为偏远地区、移动场景提供低延迟高速网络,也支持应急通信与军事应用。该星配备星间激光链路与自主避碰系统,遵循太空碎片管理规范,服役结束后会再入大气层完全销毁,是星链全球覆盖组网的重要组成部分。

基本信息
目录编号:
58131
目录名称:
STARLINK-30757
国际标识:
2023-162P
轨道中心:
EARTH
卫星名称:
星链-30757
卫星全名:
星链-30757 (STARLINK-30757 )
卫星状态:
在轨 (已飞行970 天)
发射日期:
2023-10-22 UTC
国别 :
美国 (US)
星等 :
--
轨道信息
数据来源 国际轨道数据
星历时间: 2026-06-17T09:27:02+0800
1天前
查看轨道信息
半长轴: 6861.179km
偏心率: 0.0002431
轨道倾角: 43.003°
近地点辐角 276.604°
升交点赤经 287.973°
平近点角 83.453°
近地点: 481.374km
远地点: 484.71km
周期: 94.267分钟
每日圈数: 15.275827
详细信息
固有亮度:
5
最大亮度:
0.3
卫星平台:
Starlink v2.0 mini
覆盖范围:
全球
运营商:
太空探索技术公司
运营商所在国:
美国
制造商(研发单位):
太空探索技术公司
制造商所在国:
美国
使用方式:
暂无
卫星简介
星链(Starlink)计划是由太空探索技术公司(SpaceX)提出的一个巨型低轨卫星互联网星座项目,计划在2019年至2024年间在太空搭建由约1.2万颗卫星组成的“星链”网络,其中1584颗将部署在地球上空550千米处的近地轨道,并从2020年开始工作。该卫星仍在工作。
2D轨道图
3D轨道图
轨道高度分析图
轨道倾角分析图
轨道综合分析图
查看轨道综合分析图